Location: *
(40.4000°N, 15.1200°E)
Time: 22:11:41
(UTC+00:00)

Cosmos 1076 Rocket - Pass Details

Date: 09 April 2020
Orbit: 590 x 612 km, 82.5° (Epoch: 24 May)

Event Time Altitude Azimuth Distance (km) Brightness Sun altitude
Rises 19:40:30 0° 354° (N) 2,848 7.5 -23.2°
Reaches altitude 10° 19:42:43 10° 357° (N) 1,944 6.6 -23.5°
Enters shadow 19:46:23 59° 30° (NNE) 697 3.7 -24.1°
